Flag for Canada Weather past 2 weeks in Toronto, Ontario, Canada

Now
50 °F

Passing clouds.


Feels Like: 43 °F
Forecast: 45 / 52 °F
Wind: 23 mph from Northwest

Location: Toronto Pearson International Airport

Current Time: Oct 26, 2014 at 5:53:59 AM

Latest Report: Oct 26, 2014 at 5:00 AM


Visibility: 15 mi

Pressure: 29.64 "Hg

Humidity: 62%

Dew point: 37 °F

Location of TorontoLocation

Historic Weather in Toronto — Graph

°F

Toronto temperature yesterday

Maximum temperature yesterday: 61 °F (at 12:00 PM)
Minimum temperature yesterday: 48 °F (at 5:00 AM)
Average temperature yesterday: 54 °F

Past Weeks' High & Low Weather Summary

 TemperatureHumidityPressure
High72 °F (Oct 14, 4:00 PM)100% (Oct 16, 5:00 AM)30.30 "Hg (Oct 16, 5:00 AM)
Low36 °F (Oct 12, 4:00 AM)38% (Oct 11, 2:51 PM)29.48 "Hg (Oct 17, 10:00 PM)
Average52 °F77%29.92 "Hg
* Reported Oct 11 4:00 AM — Oct 26 4:00 AM, Toronto, Weather by CustomWeather, © 2014

Note: Actual official high and low records may vary slightly from our data, if they occured in-between our weather recording intervals... More about our weather records

Advertising

Toronto weather history for previous 24 hours

 ConditionsComfort  
Time TempWeatherWind HumidityBarometerVisibility
4:00 AM
Oct 26
48 °FPassing clouds.15 mph62%29.63 "Hg15 mi
3:00 AM48 °FPassing clouds.16 mph66%29.64 "Hg15 mi
2:00 AM46 °FPassing clouds.14 mph71%29.64 "Hg15 mi
1:00 AM46 °FPassing clouds.10 mph76%29.64 "Hg15 mi
12:00 AM46 °FPassing clouds.9 mph76%29.65 "Hg15 mi
11:00 PM
Oct 25
48 °FPassing clouds.9 mph71%29.65 "Hg15 mi
10:00 PM52 °FPassing clouds.15 mph62%29.65 "Hg15 mi
9:00 PM54 °FPassing clouds.17 mph58%29.64 "Hg15 mi
8:00 PM55 °FPassing clouds.23 mph67%29.62 "Hg15 mi
7:00 PM55 °FPassing clouds.9 mph63%29.60 "Hg15 mi
6:00 PM59 °FScattered clouds.16 mph51%29.61 "Hg15 mi
5:00 PM61 °FPartly sunny.20 mph52%29.61 "Hg15 mi
4:00 PM61 °FPartly sunny.18 mph63%29.60 "Hg15 mi
3:00 PM57 °FBroken clouds.13 mph77%29.62 "Hg12 mi
2:00 PM57 °FOvercast.20 mph77%29.64 "Hg8 mi
1:00 PM59 °FBroken clouds.23 mph68%29.63 "Hg12 mi
12:00 PM61 °FPartly sunny.20 mph63%29.65 "Hg12 mi
11:00 AM59 °FBroken clouds.17 mph68%29.68 "Hg12 mi
10:00 AM57 °FPartly sunny.12 mph72%29.71 "Hg10 mi
9:00 AM52 °FBroken clouds.6 mph82%29.77 "Hg10 mi
8:00 AM48 °FPartly cloudy.7 mph87%29.79 "Hg8 mi
7:00 AM48 °FPassing clouds.2 mph87%29.80 "Hg10 mi
6:00 AM50 °FPassing clouds.8 mph82%29.81 "Hg15 mi
5:00 AM48 °FPassing clouds.8 mph82%29.83 "Hg15 mi
Weather by CustomWeather, © 2014

See weather overviewHow to use our weather pages